Time,TemperatureF,DewpointF,PressureIn,WindDirection,WindDirectionDegrees,WindSpeedMPH,WindSpeedGustMPH,Humidity,HourlyPrecipIn,Conditions,Clouds,dailyrainin,SoftwareType,DateUTC
2013-05-11 00:04:00,59.5,52.0,30.00,NE,37,0.0,-999.0,75,-99.99,,,0.00,weatherlink.com 1.10,2013-05-11 05:04:00,
2013-05-11 00:19:00,59.0,51.0,30.01,NE,44,0.0,-999.0,76,-99.99,,,0.00,weatherlink.com 1.10,2013-05-11 05:19:00,
2013-05-11 00:34:00,58.5,50.0,30.00,NE,44,1.0,-999.0,74,-99.99,,,0.00,weatherlink.com 1.10,2013-05-11 05:34:00,
2013-05-11 00:49:00,58.2,50.0,30.01,NE,44,8.0,-999.0,74,-99.99,,,0.00,weatherlink.com 1.10,2013-05-11 05:49:00,
2013-05-11 01:04:00,57.8,50.0,30.01,NE,44,4.0,-999.0,74,-99.99,,,0.00,weatherlink.com 1.10,2013-05-11 06:04:00,
2013-05-11 01:19:00,57.4,49.0,30.00,NE,43,3.0,-999.0,73,-99.99,,,0.00,weatherlink.com 1.10,2013-05-11 06:19:00,
2013-05-11 01:34:00,57.3,48.0,30.01,NE,45,0.0,-999.0,72,-99.99,,,0.00,weatherlink.com 1.10,2013-05-11 06:34:00,
2013-05-11 01:49:00,57.2,49.0,30.00,NE,44,0.0,-999.0,73,-99.99,,,0.00,weatherlink.com 1.10,2013-05-11 06:49:00,
2013-05-11 02:04:00,57.0,48.0,30.00,NE,44,0.0,-999.0,73,-99.99,,,0.00,weatherlink.com 1.10,2013-05-11 07:04:00,
2013-05-11 02:19:00,56.7,48.0,29.99,NE,49,8.0,-999.0,73,-99.99,,,0.00,weatherlink.com 1.10,2013-05-11 07:19:00,
2013-05-11 02:34:00,56.3,47.0,30.00,NE,46,4.0,-999.0,71,-99.99,,,0.00,weatherlink.com 1.10,2013-05-11 07:34:00,
2013-05-11 02:49:00,56.0,46.0,30.00,NE,46,0.0,-999.0,69,-99.99,,,0.00,weatherlink.com 1.10,2013-05-11 07:49:00,
2013-05-11 03:04:00,55.7,46.0,30.00,NE,46,0.0,-999.0,69,-99.99,,,0.00,weatherlink.com 1.10,2013-05-11 08:04:00,
2013-05-11 03:19:00,55.6,46.0,29.99,NE,42,0.0,-999.0,71,-99.99,,,0.00,weatherlink.com 1.10,2013-05-11 08:19:00,
2013-05-11 03:34:00,55.4,46.0,29.99,NE,40,0.0,-999.0,70,-99.99,,,0.00,weatherlink.com 1.10,2013-05-11 08:34:00,
2013-05-11 03:49:00,55.0,45.0,30.00,NE,40,0.0,-999.0,70,-99.99,,,0.00,weatherlink.com 1.10,2013-05-11 08:49:00,
2013-05-11 04:04:00,54.9,46.0,30.00,NE,40,0.0,-999.0,71,-99.99,,,0.00,weatherlink.com 1.10,2013-05-11 09:04:00,
2013-05-11 04:19:00,54.6,45.0,30.00,NE,40,0.0,-999.0,70,-99.99,,,0.00,weatherlink.com 1.10,2013-05-11 09:19:00,
2013-05-11 04:34:00,54.5,45.0,30.00,NE,40,0.0,-999.0,70,-99.99,,,0.00,weatherlink.com 1.10,2013-05-11 09:34:00,
2013-05-11 04:49:00,54.3,45.0,30.00,NE,39,0.0,-999.0,71,-99.99,,,0.00,weatherlink.com 1.10,2013-05-11 09:49:00,
2013-05-11 05:04:00,53.9,45.0,30.01,NE,39,0.0,-999.0,71,-99.99,,,0.00,weatherlink.com 1.10,2013-05-11 10:04:00,
2013-05-11 05:19:00,53.6,45.0,30.01,NE,39,0.0,-999.0,72,-99.99,,,0.00,weatherlink.com 1.10,2013-05-11 10:19:00,
2013-05-11 05:34:00,53.8,46.0,30.01,NE,39,0.0,-999.0,74,-99.99,,,0.00,weatherlink.com 1.10,2013-05-11 10:34:00,
2013-05-11 05:49:00,53.7,45.0,30.00,NE,39,0.0,-999.0,73,-99.99,,,0.00,weatherlink.com 1.10,2013-05-11 10:49:00,
2013-05-11 06:04:00,53.6,46.0,30.02,NE,39,0.0,-999.0,74,-99.99,,,0.00,weatherlink.com 1.10,2013-05-11 11:04:00,
2013-05-11 06:19:00,53.5,45.0,30.02,NE,39,0.0,-999.0,74,-99.99,,,0.00,weatherlink.com 1.10,2013-05-11 11:19:00,
2013-05-11 06:34:00,53.3,45.0,30.02,NE,36,0.0,-999.0,74,-99.99,,,0.00,weatherlink.com 1.10,2013-05-11 11:34:00,
2013-05-11 06:49:00,53.8,46.0,30.03,NE,36,0.0,-999.0,74,-99.99,,,0.00,weatherlink.com 1.10,2013-05-11 11:49:00,
2013-05-11 07:04:00,54.7,47.0,30.04,NE,34,0.0,-999.0,75,-99.99,,,0.00,weatherlink.com 1.10,2013-05-11 12:04:00,
2013-05-11 07:19:00,55.6,48.0,30.04,NNE,32,0.0,-999.0,75,-99.99,,,0.00,weatherlink.com 1.10,2013-05-11 12:19:00,
2013-05-11 07:34:00,56.0,48.0,30.04,NNE,15,1.0,-999.0,75,-99.99,,,0.00,weatherlink.com 1.10,2013-05-11 12:34:00,
2013-05-11 07:49:00,55.7,48.0,30.06,NNE,19,0.0,-999.0,75,-99.99,,,0.00,weatherlink.com 1.10,2013-05-11 12:49:00,
2013-05-11 08:04:00,55.7,48.0,30.06,NNE,18,0.0,-999.0,75,-99.99,,,0.00,weatherlink.com 1.10,2013-05-11 13:04:00,
2013-05-11 08:19:00,55.9,48.0,30.06,NNE,21,0.0,-999.0,75,-99.99,,,0.00,weatherlink.com 1.10,2013-05-11 13:19:00,
2013-05-11 08:34:00,57.5,49.0,30.06,NNE,25,0.0,-999.0,74,-99.99,,,0.00,weatherlink.com 1.10,2013-05-11 13:34:00,
2013-05-11 08:49:00,58.0,50.0,30.06,NNE,22,2.0,-999.0,74,-99.99,,,0.00,weatherlink.com 1.10,2013-05-11 13:49:00,
2013-05-11 09:04:00,58.5,50.0,30.07,NNE,19,0.0,-999.0,74,-99.99,,,0.00,weatherlink.com 1.10,2013-05-11 14:04:00,
2013-05-11 09:19:00,59.1,51.0,30.06,NNE,28,0.0,-999.0,74,-99.99,,,0.00,weatherlink.com 1.10,2013-05-11 14:19:00,
2013-05-11 09:34:00,60.5,52.0,30.07,NE,55,4.0,-999.0,73,-99.99,,,0.00,weatherlink.com 1.10,2013-05-11 14:34:00,
2013-05-11 09:49:00,60.7,51.0,30.07,NE,42,0.0,-999.0,70,-99.99,,,0.00,weatherlink.com 1.10,2013-05-11 14:49:00,
2013-05-11 10:04:00,61.0,51.0,30.08,NE,41,0.0,-999.0,69,-99.99,,,0.00,weatherlink.com 1.10,2013-05-11 15:04:00,
2013-05-11 10:19:00,61.3,51.0,30.08,NE,51,1.0,-999.0,70,-99.99,,,0.00,weatherlink.com 1.10,2013-05-11 15:19:00,
2013-05-11 10:34:00,61.8,52.0,30.09,NE,53,0.0,-999.0,70,-99.99,,,0.00,weatherlink.com 1.10,2013-05-11 15:34:00,
2013-05-11 10:49:00,62.6,52.0,30.09,NE,54,0.0,-999.0,68,-99.99,,,0.00,weatherlink.com 1.10,2013-05-11 15:49:00,
2013-05-11 11:04:00,63.1,52.0,30.09,NE,37,0.0,-999.0,68,-99.99,,,0.00,weatherlink.com 1.10,2013-05-11 16:04:00,
2013-05-11 11:19:00,64.3,50.0,30.09,NE,37,0.0,-999.0,60,-99.99,,,0.00,weatherlink.com 1.10,2013-05-11 16:19:00,
2013-05-11 11:34:00,64.9,51.0,30.09,NE,49,0.0,-999.0,61,-99.99,,,0.00,weatherlink.com 1.10,2013-05-11 16:34:00,
2013-05-11 11:49:00,65.1,51.0,30.09,NE,44,0.0,-999.0,60,-99.99,,,0.00,weatherlink.com 1.10,2013-05-11 16:49:00,
2013-05-11 12:04:00,65.5,51.0,30.08,NE,53,1.0,-999.0,59,-99.99,,,0.00,weatherlink.com 1.10,2013-05-11 17:04:00,
2013-05-11 12:19:00,65.4,51.0,30.08,NE,55,0.0,-999.0,59,-99.99,,,0.00,weatherlink.com 1.10,2013-05-11 17:19:00,
2013-05-11 12:34:00,66.8,51.0,30.07,NE,46,0.0,-999.0,58,-99.99,,,0.00,weatherlink.com 1.10,2013-05-11 17:34:00,
2013-05-11 12:49:00,67.6,51.0,30.07,NE,42,0.0,-999.0,55,-99.99,,,0.00,weatherlink.com 1.10,2013-05-11 17:49:00,
2013-05-11 13:04:00,67.5,51.0,30.07,NE,35,1.0,-999.0,55,-99.99,,,0.00,weatherlink.com 1.10,2013-05-11 18:04:00,
2013-05-11 13:19:00,68.2,51.0,30.07,NE,36,0.0,-999.0,55,-99.99,,,0.00,weatherlink.com 1.10,2013-05-11 18:19:00,
2013-05-11 13:34:00,69.7,51.0,30.07,NW,317,1.0,-999.0,51,-99.99,,,0.00,weatherlink.com 1.10,2013-05-11 18:34:00,
2013-05-11 13:49:00,69.0,50.0,30.07,North,355,0.0,-999.0,51,-99.99,,,0.00,weatherlink.com 1.10,2013-05-11 18:49:00,
2013-05-11 14:04:00,69.4,49.0,30.06,NNE,28,0.0,-999.0,48,-99.99,,,0.00,weatherlink.com 1.10,2013-05-11 19:04:00,
2013-05-11 14:19:00,69.7,48.0,30.06,NE,44,3.0,-999.0,47,-99.99,,,0.00,weatherlink.com 1.10,2013-05-11 19:19:00,
2013-05-11 14:34:00,69.7,48.0,30.06,NE,38,0.0,-999.0,46,-99.99,,,0.00,weatherlink.com 1.10,2013-05-11 19:34:00,
2013-05-11 14:49:00,70.1,49.0,30.07,NW,325,0.0,-999.0,47,-99.99,,,0.00,weatherlink.com 1.10,2013-05-11 19:49:00,
2013-05-11 15:04:00,70.4,48.0,30.06,NE,44,1.0,-999.0,45,-99.99,,,0.00,weatherlink.com 1.10,2013-05-11 20:04:00,
2013-05-11 15:19:00,70.8,49.0,30.06,NNW,332,0.0,-999.0,46,-99.99,,,0.00,weatherlink.com 1.10,2013-05-11 20:19:00,
2013-05-11 15:34:00,72.9,50.0,30.06,WNW,298,0.0,-999.0,44,-99.99,,,0.00,weatherlink.com 1.10,2013-05-11 20:34:00,
2013-05-11 15:49:00,72.4,50.0,30.05,WNW,299,0.0,-999.0,45,-99.99,,,0.00,weatherlink.com 1.10,2013-05-11 20:49:00,
2013-05-11 16:04:00,73.1,49.0,30.05,WNW,299,0.0,-999.0,43,-99.99,,,0.00,weatherlink.com 1.10,2013-05-11 21:04:00,
2013-05-11 16:19:00,72.5,50.0,30.05,WNW,298,0.0,-999.0,45,-99.99,,,0.00,weatherlink.com 1.10,2013-05-11 21:19:00,
2013-05-11 16:34:00,72.2,50.0,30.05,WNW,298,0.0,-999.0,46,-99.99,,,0.00,weatherlink.com 1.10,2013-05-11 21:34:00,
2013-05-11 16:49:00,72.5,49.0,30.05,WNW,298,0.0,-999.0,44,-99.99,,,0.00,weatherlink.com 1.10,2013-05-11 21:49:00,
2013-05-11 17:04:00,72.6,49.0,30.05,WNW,300,0.0,-999.0,44,-99.99,,,0.00,weatherlink.com 1.10,2013-05-11 22:04:00,
2013-05-11 17:19:00,72.5,51.0,30.05,WNW,296,0.0,-999.0,47,-99.99,,,0.00,weatherlink.com 1.10,2013-05-11 22:19:00,
2013-05-11 17:34:00,72.4,50.0,30.05,WNW,296,0.0,-999.0,46,-99.99,,,0.00,weatherlink.com 1.10,2013-05-11 22:34:00,
2013-05-11 17:49:00,71.6,50.0,30.05,WNW,296,0.0,-999.0,47,-99.99,,,0.00,weatherlink.com 1.10,2013-05-11 22:49:00,
2013-05-11 18:04:00,71.1,50.0,30.05,WNW,296,0.0,-999.0,47,-99.99,,,0.00,weatherlink.com 1.10,2013-05-11 23:04:00,
2013-05-11 18:19:00,70.5,51.0,30.05,WNW,296,0.0,-999.0,50,-99.99,,,0.00,weatherlink.com 1.10,2013-05-11 23:19:00,
2013-05-11 18:34:00,70.1,51.0,30.05,WNW,296,0.0,-999.0,51,-99.99,,,0.00,weatherlink.com 1.10,2013-05-11 23:34:00,
2013-05-11 18:49:00,69.7,51.0,30.05,WNW,296,0.0,-999.0,51,-99.99,,,0.00,weatherlink.com 1.10,2013-05-11 23:49:00,
2013-05-11 19:04:00,68.7,50.0,30.05,WNW,288,0.0,-999.0,52,-99.99,,,0.00,weatherlink.com 1.10,2013-05-12 00:04:00,
2013-05-11 19:19:00,67.9,50.0,30.05,WNW,288,0.0,-999.0,54,-99.99,,,0.00,weatherlink.com 1.10,2013-05-12 00:19:00,
2013-05-11 19:34:00,67.3,51.0,30.05,WNW,285,0.0,-999.0,57,-99.99,,,0.00,weatherlink.com 1.10,2013-05-12 00:34:00,
2013-05-11 19:49:00,66.7,52.0,30.05,WNW,288,4.0,-999.0,59,-99.99,,,0.00,weatherlink.com 1.10,2013-05-12 00:49:00,
2013-05-11 20:04:00,66.3,51.0,30.05,WNW,286,0.0,-999.0,59,-99.99,,,0.00,weatherlink.com 1.10,2013-05-12 01:04:00,
2013-05-11 20:19:00,66.2,52.0,30.06,WNW,290,0.0,-999.0,60,-99.99,,,0.00,weatherlink.com 1.10,2013-05-12 01:19:00,
2013-05-11 20:34:00,65.8,52.0,30.06,NNE,15,1.0,-999.0,61,-99.99,,,0.00,weatherlink.com 1.10,2013-05-12 01:34:00,
2013-05-11 20:49:00,64.9,51.0,30.07,NNE,22,0.0,-999.0,62,-99.99,,,0.00,weatherlink.com 1.10,2013-05-12 01:49:00,
2013-05-11 21:04:00,64.0,51.0,30.08,NNE,18,0.0,-999.0,62,-99.99,,,0.00,weatherlink.com 1.10,2013-05-12 02:04:00,
2013-05-11 21:19:00,63.3,49.0,30.08,NNE,19,0.0,-999.0,60,-99.99,,,0.00,weatherlink.com 1.10,2013-05-12 02:19:00,
2013-05-11 21:34:00,63.1,48.0,30.09,North,5,0.0,-999.0,59,-99.99,,,0.00,weatherlink.com 1.10,2013-05-12 02:34:00,
2013-05-11 21:49:00,62.6,45.0,30.11,NE,55,0.0,-999.0,53,-99.99,,,0.00,weatherlink.com 1.10,2013-05-12 02:49:00,
2013-05-11 22:04:00,62.0,43.0,30.12,North,5,2.0,-999.0,51,-99.99,,,0.00,weatherlink.com 1.10,2013-05-12 03:04:00,
2013-05-11 22:19:00,61.2,43.0,30.12,NE,35,2.0,-999.0,52,-99.99,,,0.00,weatherlink.com 1.10,2013-05-12 03:19:00,
2013-05-11 22:34:00,60.4,42.0,30.13,NNE,30,0.0,-999.0,51,-99.99,,,0.00,weatherlink.com 1.10,2013-05-12 03:34:00,
2013-05-11 22:49:00,59.6,39.0,30.13,NNE,25,6.0,-999.0,47,-99.99,,,0.00,weatherlink.com 1.10,2013-05-12 03:49:00,
2013-05-11 23:04:00,59.1,38.0,30.13,North,9,3.0,-999.0,45,-99.99,,,0.00,weatherlink.com 1.10,2013-05-12 04:04:00,
2013-05-11 23:19:00,58.5,37.0,30.14,NNE,24,2.0,-999.0,45,-99.99,,,0.00,weatherlink.com 1.10,2013-05-12 04:19:00,
2013-05-11 23:34:00,57.8,36.0,30.14,NNE,31,0.0,-999.0,45,-99.99,,,0.00,weatherlink.com 1.10,2013-05-12 04:34:00,
2013-05-11 23:49:00,57.4,36.0,30.14,North,355,4.0,-999.0,45,-99.99,,,0.00,weatherlink.com 1.10,2013-05-12 04:49:00,